Location: Balaclava NSW 2575, Australia
(34.4510°S, 150.4953°E)
Time: 13:33:14
(UTC+10:00)

ISS - Visible Passes

Search period start: 18 August 2019 00:00
Search period end: 28 August 2019 00:00
Orbit: 410 x 421 km, 51.6° (Epoch: 18 August)

Date Brightness Start Highest point End Pass type
(mag) Time Alt. Az. Time Alt. Az. Time Alt. Az.
18 Aug -1.4 19:10:05 10° NNW 19:10:57 16° N 19:10:57 16° N visible
19 Aug -1.9 18:22:20 10° NNE 18:24:27 16° NE 18:24:59 15° ENE visible
19 Aug -0.4 19:57:41 10° WNW 19:57:55 11° WNW 19:57:55 11° WNW visible
20 Aug -3.6 19:08:44 10° NW 19:11:51 71° W 19:11:51 71° W visible
21 Aug -3.5 18:20:04 10° NNW 18:23:21 52° NE 18:25:40 18° ESE visible
21 Aug -0.4 19:57:59 10° WSW 19:58:36 13° WSW 19:58:36 13° WSW visible
22 Aug -1.9 19:08:25 10° W 19:11:20 26° SW 19:12:17 23° S visible
23 Aug -2.8 18:19:11 10° WNW 18:22:26 45° SW 18:25:43 10° SE visible
24 Aug -0.9 19:09:14 10° SW 19:10:45 12° SSW 19:12:15 10° S visible
25 Aug -1.3 18:19:16 10° WSW 18:21:43 18° SSW 18:24:10 10° SSE visible
